Tracking 35334 objects as of 12-Sep-2026
HD Live streaming from Space Station
objects crossing your sky now

NOAA 16 DEB

Track NOAA 16 DEB now!
10-day predictions


NORAD ID: 41536
Int'l Code: 2000-055NL
Launch date: September 21, 2000
Source: United States (US)
Launch site: AIR FORCE WESTERN TEST RANGE (AFWTR)

Note: This is SATELLITE DEBRIS
Your satellite tracking list
Your tracking list is empty




NASA's NSSDC Master Catalog

Two Line Element Set (TLE):
1 41536U 00055NL  26255.08425394  .00003022  00000-0  10247-2 0  9997
2 41536  98.7384   0.5104 0009916 284.7523  75.2564 14.37456940551942
Source of the keplerian elements: AFSPC